Tracking 19219 objects as of 19-Jul-2018
HD Live streaming from Space Station
objects crossing your sky now

FENGYUN 1C DEB

Track FENGYUN 1C DEB now!
10-day predictions


NORAD ID: 31988
Int'l Code: 1999-025CPR
Perigee: 832.0 km
Apogee: 941.7 km
Inclination: 98.1 °
Period: 102.6 minutes
Semi major axis: 7257 km
RCS: 0.0166 m2 (small)
Launch date: May 10, 1999
Source: People's Republic of China (PRC)
Launch site: Taiyaun Space Center, China (TSC)

Note: This is SATELLITE DEBRIS
aabbcc
Your satellite tracking list
Your tracking list is empty




NASA's NSSDC Master Catalog

Two Line Element Set (TLE):
1 31988U 99025CPR 18197.04484117  .00000950  00000-0  60775-3 0  9991
2 31988  98.1397 134.9358 0075559 146.4082 214.1911 14.04082463565790
Source of the keplerian elements: AFSPC